Theta_e
295 297 298 299 299 299 299 300 300 300 302 303 300 301 306 306 299 297 308 312 306 306 307 309 316 323 323 316 321 323 322 318 320 325 324 324 325 328 329 335 338 339 340 343 343 342 342 341 342 342 342 344 346 347 348 348 346 348 350 352 352 352 353 353 356 358 358 359 359 359 359 360 359 359 358 359 359 359 360 359 358 357 358 358 358 359 359
295 296 297 299 298 298 298 298 299 300 301 301 302 302 303 304 305 306 307 312 306 307 308 310 312 321 320 322 324 318 317 316 325 324 325 320 322 324 328 334 334 339 340 342 345 345 345 342 342 341 343 344 344 345 346 347 348 348 353 354 354 352 353 356 357 358 359 360 360 360 360 360 360 360 359 359 359 359 360 359 359 359 359 358 358 358 358
293 295 298 299 298 297 296 298 299 300 301 301 302 302 303 304 303 304 304 310 308 310 317 314 316 324 315 314 314 316 321 325 321 324 322 325 326 328 331 334 333 336 339 341 344 345 346 345 344 342 342 345 345 343 346 345 348 350 350 351 354 354 354 356 357 358 359 359 359 359 359 359 360 360 360 360 360 360 360 360 359 360 359 358 357 357 357
291 295 296 296 297 297 297 298 300 300 300 299 301 301 303 302 302 304 303 304 305 312 314 314 316 315 315 315 319 321 322 320 322 325 327 329 333 330 329 330 331 334 335 338 341 342 342 343 344 344 343 344 344 343 346 347 347 348 349 352 352 355 354 356 358 358 357 358 358 358 359 359 360 360 360 360 360 360 359 359 360 360 359 359 359 358 357
290 294 295 295 296 296 294 296 299 301 302 303 304 305 306 305 305 302 301 302 309 313 316 314 315 313 315 317 316 319 320 327 322 324 325 328 330 331 333 332 332 330 331 334 341 341 342 343 343 342 344 342 346 345 347 349 350 350 351 352 353 354 356 357 357 358 359 358 358 358 359 359 360 360 360 360 359 359 358 360 361 360 359 358 358 359 358
290 293 294 295 293 288 291 302 301 304 302 303 301 301 303 305 306 305 308 308 312 315 314 312 313 314 316 318 321 323 324 325 328 323 327 328 327 328 331 333 333 334 334 334 337 342 345 345 342 346 346 345 347 349 349 353 352 351 350 351 353 354 357 357 358 358 359 358 357 358 359 359 359 359 359 358 359 360 359 360 359 359 359 359 359 359 358
288 292 293 290 286 289 302 303 311 312 314 312 310 307 306 306 307 307 307 308 311 315 315 315 316 316 324 329 322 317 320 327 327 330 329 337 338 341 342 343 341 341 339 338 339 341 340 340 345 347 346 345 347 350 353 352 353 352 352 353 354 355 356 357 358 358 358 358 358 359 359 359 359 358 358 359 359 359 358 358 357 357 357 357 358 358 358
292 290 291 284 287 297 299 303 313 316 310 315 312 306 307 308 308 309 307 309 311 316 317 315 317 326 331 334 337 338 337 338 337 336 336 339 340 341 344 345 346 347 345 341 338 339 341 340 341 343 344 345 344 349 352 351 353 354 354 353 353 355 355 356 357 358 358 358 359 359 359 359 358 357 358 358 358 359 358 357 358 358 359 359 357 357 358
286 289 289 289 297 295 297 300 310 312 309 311 311 305 312 316 315 313 309 310 311 312 314 315 318 321 326 327 333 338 338 338 338 338 340 339 341 342 344 344 344 347 349 348 343 342 342 341 341 343 344 345 347 349 349 350 353 353 353 353 353 354 354 355 356 357 357 357 358 358 359 358 357 357 358 358 359 360 358 357 357 357 357 357 358 358 357
292 288 287 288 289 286 295 310 313 315 315 316 315 310 309 317 320 321 320 317 313 312 313 314 318 325 317 313 319 335 338 338 338 338 338 339 341 341 342 344 346 348 349 347 345 341 342 343 346 350 349 348 352 354 352 353 352 351 351 351 353 355 354 357 357 357 358 357 357 357 358 357 357 358 358 359 359 360 357 356 355 356 357 357 357 357 357
290 288 285 285 285 291 307 309 311 315 316 316 317 308 304 315 316 318 318 319 323 323 317 316 324 318 309 311 318 338 338 338 338 338 339 339 340 341 342 342 344 346 349 348 343 346 346 346 350 353 353 352 350 351 351 351 350 349 350 352 353 354 355 357 357 358 358 357 357 357 357 358 358 358 358 359 360 361 358 358 357 358 357 356 357 359 357
290 289 286 285 290 292 303 310 312 315 317 315 312 297 298 313 316 317 319 319 321 324 328 321 319 314 309 311 321 338 338 338 338 338 338 339 339 341 342 343 345 348 351 352 351 350 348 351 352 354 353 350 349 351 352 350 348 349 351 353 356 357 356 357 358 358 357 358 359 358 358 359 360 359 361 360 359 359 358 357 356 356 356 357 356 356 357
288 289 288 290 292 301 303 309 314 316 316 313 301 295 309 314 316 319 321 321 324 327 326 325 316 319 326 332 339 337 337 335 335 336 335 336 336 338 339 340 343 346 346 346 345 345 347 351 350 351 352 350 350 353 353 351 350 351 355 356 357 357 358 357 357 358 359 359 358 358 359 359 360 360 359 358 359 359 357 357 358 357 357 356 355 355 356
287 289 287 288 293 302 309 316 314 317 308 299 299 312 315 316 316 319 319 319 323 327 327 327 324 332 330 336 336 336 335 334 334 334 334 335 336 338 339 339 341 343 344 344 345 345 348 350 351 350 351 352 353 353 352 352 354 355 357 358 358 358 358 357 356 357 357 359 360 359 361 361 360 360 360 360 359 359 358 358 358 357 357 356 356 356 357
290 290 287 287 283 303 312 314 312 315 303 308 314 315 318 317 318 317 317 319 323 327 327 329 328 330 332 334 334 333 332 332 332 332 332 333 334 336 337 339 340 341 341 341 341 342 344 347 351 354 350 352 353 352 353 357 358 356 356 356 357 357 358 357 357 358 359 360 360 360 361 362 361 360 360 360 360 361 359 358 357 356 356 356 355 355 356
286 286 285 286 297 313 316 312 304 316 318 317 317 316 316 317 317 316 316 319 320 323 327 327 328 330 330 329 329 330 331 331 332 333 334 334 335 336 336 337 339 340 340 339 338 340 342 343 346 351 357 354 353 353 351 352 356 362 358 357 358 357 357 357 357 358 359 360 360 361 362 363 361 361 361 361 361 360 359 358 356 355 355 355 354 353 353
294 292 297 308 308 310 316 318 318 318 317 318 317 316 316 315 315 316 316 317 320 323 326 327 327 326 327 327 329 329 330 331 332 333 334 334 334 335 336 336 338 339 338 337 337 337 339 341 343 345 349 350 348 345 345 349 352 355 359 360 358 357 356 356 357 358 359 360 361 362 362 362 361 360 361 362 359 360 359 358 356 355 354 355 354 353 353
301 303 303 306 308 311 313 317 318 316 316 317 316 316 316 315 314 315 315 317 318 321 324 326 326 326 326 327 329 330 331 332 332 334 334 335 336 336 337 337 337 337 337 337 336 336 337 339 340 341 342 344 342 342 346 348 350 352 357 360 358 357 357 357 357 357 356 356 359 361 361 361 360 361 360 359 358 359 357 355 356 355 355 354 353 353 352
293 289 310 310 312 313 314 315 317 318 317 316 317 317 316 316 316 317 318 319 319 320 322 326 326 326 328 327 328 329 330 330 331 332 333 334 335 335 335 337 338 338 338 337 336 336 335 338 340 340 340 340 341 343 345 347 350 352 355 356 357 358 357 357 358 358 357 355 355 357 359 359 359 360 360 359 359 357 357 355 355 354 354 353 353 352 352
291 292 299 303 305 310 315 315 315 315 316 317 318 317 318 318 318 318 319 319 319 320 320 323 324 325 326 326 327 328 328 329 330 331 333 333 334 336 337 338 338 338 337 336 336 336 336 338 339 339 340 341 342 343 344 346 348 348 349 351 353 354 356 357 357 357 356 354 354 353 355 357 356 357 358 358 357 356 356 355 354 354 354 352 352 352 352
294 297 299 300 302 304 310 314 316 318 318 318 318 318 318 318 318 319 319 319 319 320 319 320 323 324 325 327 328 327 328 329 330 332 332 333 334 335 336 336 336 335 335 335 335 335 335 338 339 338 339 340 342 343 343 345 346 345 346 347 349 350 349 350 349 351 354 356 355 354 354 356 355 357 356 357 357 357 360 361 360 357 355 355 354 356 355
289 291 296 305 299 300 308 313 315 317 319 320 318 318 318 318 317 318 318 318 319 319 318 318 319 319 323 326 327 327 328 329 331 332 333 334 335 335 336 336 336 336 336 336 335 335 336 338 339 338 339 340 340 341 342 343 343 342 343 343 343 344 345 345 344 343 343 344 344 344 346 346 348 350 342 325 336 353 357 340 329 326 327 354 358 358 356
290 298 303 305 307 307 309 313 317 319 321 320 317 317 317 318 319 318 317 317 318 317 317 317 316 316 317 321 327 327 328 329 330 331 333 334 334 334 336 336 336 336 336 337 337 336 337 339 339 339 339 340 341 341 342 342 342 341 341 340 339 339 339 340 340 345 345 344 343 343 342 342 342 342 344 347 323 316 316 318 316 310 307 306 308 316 345
298 300 301 304 304 301 305 311 316 318 321 320 318 318 318 318 318 318 317 317 317 317 316 316 317 317 318 319 325 324 325 327 328 329 330 332 334 335 335 334 335 335 336 337 337 337 338 339 339 339 339 340 342 342 342 342 342 342 340 339 337 337 337 337 338 341 342 342 343 343 343 342 341 339 339 339 343 327 317 314 313 308 308 309 311 312 310
297 303 305 306 306 307 310 312 314 317 322 320 318 317 316 315 315 317 316 317 318 318 317 316 316 319 321 322 322 322 321 322 325 327 328 329 330 331 332 334 334 335 335 336 336 337 337 338 338 338 339 341 343 343 343 342 341 340 339 339 338 337 336 336 337 337 337 338 338 339 339 339 337 336 336 336 336 337 337 319 311 308 308 309 308 308 310
305 305 306 307 307 307 308 310 314 317 320 320 319 317 316 316 315 315 316 317 318 319 318 318 317 318 321 321 321 320 320 320 322 324 324 325 328 330 330 331 333 335 335 336 336 337 337 338 338 338 338 339 342 344 344 344 342 340 340 339 339 338 337 336 336 336 336 338 339 341 341 340 338 338 338 337 335 335 334 335 337 325 311 307 306 306 306
304 306 306 304 303 305 309 311 312 317 318 318 317 316 315 314 314 314 315 317 316 318 318 318 318 319 319 320 320 320 320 321 323 323 323 323 323 325 330 332 333 334 335 335 336 338 338 339 339 339 338 340 343 344 344 344 342 340 339 339 339 337 336 336 336 336 336 338 338 339 339 339 338 338 337 337 336 335 335 333 333 333 334 339 320 307 314
305 307 307 302 301 305 311 315 317 317 318 317 316 316 317 318 316 314 313 314 314 316 318 318 318 318 317 320 320 320 322 323 323 324 325 325 326 327 329 331 332 332 332 333 335 336 338 338 338 337 337 339 343 345 344 343 342 340 339 338 337 337 337 337 337 337 338 337 338 337 336 337 337 337 336 336 335 335 334 334 334 332 331 330 329 320 311
305 307 310 310 311 314 317 317 317 317 317 318 318 317 317 315 315 314 315 316 316 315 315 317 319 319 319 319 321 321 320 321 322 323 324 326 328 329 330 331 331 331 330 331 332 334 336 337 337 336 337 339 341 344 344 344 342 341 339 338 337 337 337 337 337 338 338 339 338 335 332 333 335 337 337 336 336 336 336 336 333 330 326 323 321 320 317
307 312 313 314 315 315 313 313 314 315 316 317 317 316 317 316 315 315 316 316 316 315 316 318 319 319 320 320 321 321 320 321 322 324 324 325 327 329 330 330 330 330 330 330 331 332 332 333 334 334 337 340 341 342 343 344 343 342 340 339 337 337 337 337 339 338 339 339 336 332 336 336 337 336 336 336 335 334 334 335 332 331 327 322 314 314 314
312 313 312 313 313 313 313 313 314 315 315 316 316 315 315 316 316 316 317 317 317 316 318 319 320 321 321 322 322 324 324 325 324 325 325 325 326 327 328 329 326 325 326 327 330 332 333 332 331 333 337 340 341 342 343 343 343 342 340 340 339 327 323 326 330 337 338 337 336 336 336 336 336 336 334 333 333 332 332 333 331 330 328 325 321 320 319
310 310 311 311 311 312 312 313 313 314 315 317 317 317 317 315 314 316 318 318 318 317 317 319 320 321 322 323 324 324 324 324 324 324 325 325 326 327 327 328 328 329 329 330 330 330 332 333 334 335 338 339 340 341 341 341 342 341 339 338 339 339 333 328 336 335 337 337 336 336 335 335 336 335 335 333 332 331 331 329 325 324 326 323 321 319 319
309 307 308 309 311 311 311 313 313 313 315 315 316 318 319 320 320 319 319 320 320 319 319 318 320 321 322 323 323 323 323 324 324 324 324 324 325 326 327 328 328 329 329 330 331 333 333 333 334 337 338 338 339 339 339 339 340 340 340 340 340 339 337 332 331 337 338 337 337 336 335 335 335 335 333 333 333 333 332 328 325 322 318 318 316 316 315
311 310 310 312 313 311 311 312 314 314 315 317 317 318 318 319 320 319 320 321 321 320 319 320 320 321 322 321 322 322 322 322 320 320 321 323 323 325 327 328 329 329 329 330 331 332 333 335 337 336 336 337 338 338 338 338 339 339 339 340 339 338 338 338 339 338 336 337 337 337 336 335 335 333 333 332 332 332 329 328 326 324 320 317 316 315 310
316 316 317 317 318 317 318 316 315 315 316 315 316 317 318 319 319 320 321 320 320 320 321 321 321 321 321 321 321 320 320 319 319 320 321 322 323 325 327 327 328 328 328 328 330 331 333 335 336 337 337 338 338 339 338 337 338 338 338 339 338 337 338 338 338 336 336 336 337 337 337 336 334 332 331 331 333 332 330 328 327 325 322 319 318 318 316
316 315 315 317 318 319 318 318 318 318 317 316 317 317 318 319 319 319 319 319 321 321 320 320 320 320 319 319 318 318 318 318 319 320 320 321 323 325 325 324 325 325 325 326 328 331 333 333 335 335 334 334 335 337 338 338 338 338 337 337 336 336 337 336 337 337 337 337 336 335 336 333 332 332 332 332 332 332 330 328 325 323 322 319 318 319 320
315 313 314 315 315 315 316 316 317 318 318 317 317 317 317 318 318 318 320 319 320 320 319 319 318 317 317 318 319 319 319 319 319 319 320 321 322 322 322 322 321 321 322 321 325 329 330 330 333 334 332 332 333 334 335 336 335 336 337 336 335 335 333 334 335 334 334 335 333 335 334 335 336 335 334 333 332 330 329 327 325 323 320 319 319 319 321
314 314 313 314 314 315 315 317 317 317 317 316 317 317 317 317 318 318 318 318 318 318 317 317 316 317 317 318 318 318 318 319 319 320 320 320 321 320 319 319 318 319 319 320 325 328 329 330 331 331 331 331 332 332 333 334 333 332 333 332 331 331 330 330 330 329 330 331 331 332 333 333 334 334 333 334 334 332 330 329 327 325 323 322 321 320 320
310 313 313 314 315 314 315 316 317 317 317 316 316 316 317 317 317 317 316 316 317 318 317 317 318 317 316 316 315 316 317 318 319 319 320 320 320 318 317 319 320 321 322 324 326 327 328 328 329 328 329 330 330 329 331 332 332 330 330 331 331 330 329 329 328 329 329 330 330 330 331 329 329 329 330 331 331 330 329 328 327 326 323 322 321 321 321
308 308 309 310 310 310 311 311 312 313 314 314 314 314 315 315 314 314 314 315 316 318 317 317 316 315 315 314 314 313 314 315 317 318 318 318 318 318 318 319 321 322 324 325 324 325 326 326 326 325 326 326 326 327 328 329 329 328 328 327 328 328 327 328 328 327 328 328 328 327 328 327 326 326 326 327 329 328 329 326 325 324 322 321 321 320 319
307 308 308 308 309 309 309 309 309 310 310 310 310 311 313 312 313 313 313 314 315 316 316 316 315 314 314 313 313 313 313 313 314 315 316 317 315 315 314 313 319 322 323 323 323 323 323 323 322 321 323 323 323 324 324 325 326 326 326 326 325 325 324 323 323 324 324 325 326 326 326 326 327 327 327 328 327 327 326 325 324 321 322 321 321 320 318
309 309 309 308 308 308 309 309 310 310 310 311 312 312 312 313 312 311 311 312 312 312 313 313 315 312 312 312 312 312 312 313 314 314 314 314 314 313 312 314 319 321 323 322 321 320 319 319 320 321 320 320 321 322 322 321 321 321 321 321 322 321 321 321 321 322 324 324 324 325 325 325 326 326 326 327 326 323 322 321 321 319 320 320 320 320 319
310 309 309 309 309 309 309 309 309 309 309 310 311 312 312 312 311 310 310 310 309 309 309 309 310 311 311 310 310 310 311 313 314 314 314 314 316 316 315 316 319 320 321 320 319 317 317 318 318 318 319 318 318 320 319 317 317 316 316 316 317 317 317 317 317 318 319 322 323 323 323 323 324 324 324 324 324 324 323 321 319 319 319 319 319 319 320
310 310 310 309 309 310 309 309 308 308 307 308 310 310 310 310 311 310 310 309 309 309 308 308 308 308 308 308 308 308 308 310 312 313 312 312 313 316 318 318 318 319 320 318 317 316 316 317 317 317 318 319 318 317 315 315 314 314 314 314 313 314 314 314 314 315 316 317 318 319 320 320 322 322 322 322 322 323 322 321 319 318 317 318 319 319 318
308 309 309 309 309 309 307 307 307 306 306 307 307 307 308 307 308 308 309 309 309 309 310 308 308 307 306 307 307 307 307 308 310 311 310 309 309 311 316 317 315 316 316 317 315 315 315 315 315 317 317 316 316 316 314 313 313 313 313 312 312 312 312 312 312 313 313 313 314 315 317 317 318 319 320 320 320 320 320 320 319 319 319 318 319 319 320
307 308 309 311 308 308 308 307 307 307 306 305 305 305 306 306 306 306 307 307 307 306 307 307 307 307 307 306 306 306 306 307 307 308 310 311 310 311 314 314 314 315 314 314 313 313 313 315 314 313 314 315 315 313 312 312 312 311 311 311 311 312 311 311 311 311 311 311 311 312 313 313 314 314 314 315 315 317 318 318 318 318 318 318 318 319 320
306 306 307 308 308 309 309 308 307 306 305 304 302 302 304 304 304 304 304 304 304 304 305 306 306 307 307 307 307 306 304 304 305 307 309 310 313 312 313 313 314 314 312 311 311 311 312 311 312 312 312 313 313 311 311 311 310 310 309 309 309 309 310 310 310 310 309 310 310 311 311 311 310 310 310 310 311 311 312 314 316 316 316 317 318 318 319
304 304 305 307 307 309 308 307 306 304 303 303 303 304 304 305 305 305 305 305 305 305 305 305 306 307 308 308 308 308 308 307 302 304 307 308 310 311 310 310 311 312 311 311 310 311 311 311 311 310 310 311 309 308 308 308 308 309 308 308 307 307 307 308 308 308 308 308 308 308 308 307 307 306 306 306 306 306 307 307 307 308 309 310 310 312 315
304 305 305 306 306 307 307 307 306 306 305 306 306 305 306 306 306 306 306 306 306 305 304 304 304 305 306 308 308 307 308 308 306 304 307 307 306 307 308 310 311 310 309 308 308 308 310 308 309 309 309 309 307 307 306 306 306 307 307 307 306 306 306 306 307 307 307 307 307 307 307 306 306 305 304 304 303 302 302 302 302 302 303 304 304 304 305
305 305 305 304 304 305 305 305 305 306 307 307 307 307 306 305 304 303 305 305 305 305 304 304 304 304 304 305 305 306 307 307 307 306 306 306 306 305 306 307 308 308 308 307 308 307 309 309 308 308 307 306 306 306 306 306 305 306 305 305 305 305 304 305 304 304 306 306 306 306 305 305 304 304 304 303 302 300 300 299 299 300 300 301 302 302 302
305 304 304 305 305 305 305 305 305 306 306 307 307 307 306 305 304 304 304 304 305 304 303 303 303 304 304 304 304 305 306 306 306 306 305 304 305 306 306 305 305 306 306 305 305 305 306 307 307 306 306 306 305 305 305 305 305 305 305 304 304 304 304 304 304 304 305 305 305 305 305 305 304 303 302 302 301 300 299 299 299 298 298 298 299 299 299
305 306 306 306 305 305 305 306 307 307 307 307 306 306 305 304 303 303 303 304 303 302 302 302 301 303 303 303 303 303 304 304 304 304 304 304 303 303 304 304 303 304 304 304 304 305 305 306 307 307 306 305 305 304 305 305 304 304 304 305 304 303 304 304 303 302 303 303 303 303 303 304 304 303 303 302 301 299 299 298 298 298 298 297 298 299 299
Wind_Speed
5 7 9 6 4 6 7 9 10 13 8 8 17 18 9 14 15 18 4 8 9 10 13 9 7 5 6 7 9 8 5 4 4 4 5 5 7 5 5 8 9 10 12 12 13 14 14 15 16 17 15 16 16 14 14 15 17 19 17 16 17 17 17 18 17 16 16 15 15 16 17 16 17 17 17 16 16 16 15 16 15 17 17 17 16 16 15
5 6 9 5 3 4 7 10 12 13 13 13 9 11 15 15 14 14 12 10 15 14 14 14 13 6 8 8 4 4 5 8 4 3 4 6 6 6 8 8 9 10 12 11 12 12 11 14 16 17 16 16 17 18 17 17 16 17 14 14 16 17 17 17 14 14 15 14 15 16 16 16 17 17 16 16 16 16 16 16 15 15 16 16 17 16 15
6 6 7 6 5 7 11 10 11 12 12 12 12 11 13 14 16 19 17 8 13 9 7 11 9 5 1 4 8 8 5 4 2 2 4 5 7 7 8 6 6 7 9 11 10 11 13 14 17 17 17 17 15 18 15 17 17 16 16 17 16 17 17 15 14 14 14 15 15 16 17 16 16 17 17 15 15 16 16 15 16 15 15 17 16 15 16
6 2 5 9 11 12 12 12 12 11 13 15 12 11 9 11 11 10 16 13 12 3 5 7 4 3 6 8 8 8 6 5 3 5 6 6 8 7 6 5 6 7 9 11 12 14 15 16 16 14 16 15 16 18 17 16 17 16 17 16 17 17 16 13 14 15 15 15 16 17 16 17 17 17 16 16 16 16 16 17 16 15 15 16 15 15 14
7 5 6 9 13 11 11 15 14 16 16 15 11 11 10 13 10 14 14 12 6 7 7 10 9 10 11 11 9 8 9 7 7 8 9 8 7 5 4 6 7 9 9 10 12 14 14 14 15 18 16 14 16 17 15 16 14 15 16 17 16 16 14 15 16 16 15 16 17 16 17 17 16 15 17 16 16 16 18 16 15 16 16 16 16 15 15
4 7 8 9 7 9 8 4 1 2 8 9 15 17 16 14 13 11 7 10 9 9 8 13 13 12 12 13 13 7 8 7 8 9 9 9 6 5 6 6 8 8 8 9 10 12 13 14 17 14 13 14 13 11 12 10 12 15 17 17 16 16 15 16 16 16 16 17 17 18 16 16 15 16 17 18 17 15 15 15 17 17 17 17 16 17 17
6 5 7 7 11 11 4 3 2 5 8 8 11 15 15 16 16 16 16 13 12 10 9 12 14 16 10 2 2 5 6 5 7 8 6 5 5 6 5 6 5 6 8 10 11 11 12 13 9 9 12 14 12 11 10 12 13 13 14 13 12 12 13 14 13 14 15 16 16 15 15 16 15 16 17 16 17 16 16 17 18 19 20 18 18 19 18
4 3 5 7 7 9 15 9 4 3 5 2 5 10 12 11 13 14 18 15 14 12 10 11 11 5 2 1 0 2 3 5 6 6 6 4 3 4 3 5 6 6 7 8 9 10 8 9 11 13 14 13 13 12 11 12 11 12 12 12 12 11 12 13 14 14 15 14 14 14 15 15 16 17 17 17 17 15 15 16 18 19 16 16 18 21 20
8 6 10 15 11 17 19 8 4 5 4 5 4 4 1 5 7 8 9 10 14 15 10 10 6 3 4 4 5 4 6 5 5 5 3 2 3 4 5 5 7 7 8 8 9 7 7 9 10 12 11 12 11 11 12 12 12 12 12 13 14 14 15 14 14 14 15 15 14 14 15 16 18 18 17 17 16 14 15 16 17 17 17 19 19 19 20
9 9 9 10 9 12 6 6 0 2 4 2 2 2 4 2 7 8 8 9 11 12 8 4 3 5 5 8 7 9 8 6 4 2 1 1 2 4 5 6 6 7 6 5 5 6 7 8 9 8 9 10 10 10 11 11 12 12 13 15 14 13 14 14 14 15 15 15 14 15 16 18 19 18 17 15 16 15 17 18 18 19 19 17 19 20 19
9 11 12 11 11 7 3 7 2 4 1 3 5 3 6 4 7 9 8 10 10 9 9 5 5 5 8 9 8 7 9 6 3 3 1 1 2 3 4 5 7 7 6 2 2 3 4 6 6 8 9 11 11 11 11 12 13 14 15 14 14 14 13 14 15 15 15 16 16 16 18 18 17 17 17 17 15 14 15 15 16 15 16 17 18 17 18
10 10 11 14 7 9 1 3 1 4 2 5 4 7 4 5 11 11 10 11 12 11 9 7 9 10 10 9 6 10 9 7 4 2 1 2 3 3 3 4 5 6 6 6 8 7 6 4 2 5 9 10 12 10 10 11 13 14 13 9 9 10 12 14 13 12 13 14 15 16 18 16 15 16 14 14 15 15 15 14 13 13 14 15 17 17 19
13 13 12 9 10 5 4 3 2 3 3 4 5 9 2 4 9 11 11 12 12 11 11 7 9 9 3 6 7 11 10 8 6 3 1 1 2 3 4 5 6 6 7 8 8 8 5 3 1 3 6 8 9 8 9 10 11 10 9 9 10 11 11 12 12 13 13 14 17 17 15 14 14 14 13 15 15 15 17 16 16 17 20 17 16 15 14
13 12 12 12 9 3 7 4 3 0 3 6 8 3 5 8 10 9 10 12 11 11 12 9 10 4 2 3 5 8 8 7 6 4 2 2 2 2 4 5 6 7 8 10 10 10 8 6 4 4 5 6 6 6 7 8 7 4 4 6 8 9 10 11 13 14 15 15 15 14 14 13 13 14 14 14 14 16 15 15 18 21 19 18 18 15 14
9 10 10 7 10 3 7 7 2 5 7 2 2 5 4 2 7 10 9 9 10 11 11 10 7 1 0 3 5 6 7 7 5 4 3 2 3 3 4 5 6 7 9 11 11 10 9 9 7 4 6 6 6 6 6 4 3 2 4 6 8 9 9 10 11 12 13 14 13 11 12 14 15 15 14 15 15 14 15 16 17 21 21 20 19 18 16
10 10 12 7 4 4 5 8 8 5 3 2 2 2 3 3 4 7 9 7 9 11 9 7 3 3 4 3 4 4 5 5 5 4 3 3 4 5 5 5 7 9 11 10 11 11 10 10 10 9 6 7 6 7 7 4 3 2 3 7 8 9 9 10 11 11 12 13 13 12 13 12 14 14 14 14 14 14 17 16 17 19 17 18 18 18 17
6 6 6 6 11 13 11 8 1 6 5 5 4 3 0 2 4 6 6 8 8 9 9 2 2 4 2 5 4 3 4 5 5 5 4 4 5 5 6 7 8 9 10 11 11 11 11 12 11 11 9 9 10 9 5 5 4 3 3 2 6 8 9 9 9 10 10 10 11 12 11 12 13 13 14 13 13 16 16 17 19 19 18 16 16 15 16
8 13 15 15 12 12 12 8 1 6 6 5 4 2 1 5 4 5 5 7 7 7 9 3 2 3 4 6 6 5 4 4 4 5 5 5 6 7 7 8 8 9 10 11 12 12 11 11 11 11 10 10 11 7 5 5 4 4 3 2 1 4 6 7 8 9 10 11 11 11 11 11 13 12 13 14 15 14 17 18 18 18 15 13 14 16 19
7 6 1 8 9 8 11 9 4 2 4 5 5 4 5 6 6 5 5 4 6 6 7 3 4 4 5 7 7 6 5 4 4 5 6 6 6 7 7 6 7 8 9 10 11 12 11 10 9 9 10 10 9 7 8 7 6 6 5 5 4 2 1 3 4 6 7 8 8 9 11 11 12 12 12 13 14 14 15 17 16 15 18 13 15 19 19
7 9 14 11 12 13 11 9 6 5 5 5 5 5 8 9 6 5 6 5 6 6 6 6 5 5 4 7 8 7 6 5 5 5 6 6 7 7 7 6 7 9 10 10 10 11 10 9 9 9 9 9 9 8 7 7 6 6 6 6 5 5 5 2 1 3 4 3 4 7 8 10 11 12 13 15 15 17 18 18 18 16 15 18 16 18 19
9 14 18 16 9 13 15 13 11 7 5 7 8 8 12 14 9 6 7 9 7 6 6 6 6 6 5 5 8 9 7 7 7 7 7 8 8 8 9 9 9 9 10 10 10 10 10 8 9 9 10 9 9 9 8 7 7 7 7 7 6 7 6 6 6 6 3 2 3 5 7 9 10 11 12 13 15 17 16 15 15 16 18 19 19 21 17
10 11 9 4 3 5 8 12 10 9 9 6 9 9 14 14 9 7 7 8 9 9 8 7 7 8 6 6 4 6 6 6 7 8 8 8 10 10 10 10 11 12 12 12 12 12 10 8 8 9 10 10 10 10 9 8 8 8 8 8 8 7 6 5 5 4 4 4 4 3 3 4 5 6 8 9 8 8 10 11 13 16 15 16 20 19 19
13 11 8 5 6 10 12 10 11 10 9 5 13 12 13 12 8 6 7 7 8 9 9 9 9 9 8 7 6 7 8 8 7 7 8 10 10 10 11 12 13 13 13 13 13 13 11 10 11 11 11 10 10 10 10 9 9 9 9 8 7 7 6 6 4 3 3 3 2 1 1 0 1 3 5 8 10 11 10 11 12 13 14 16 19 20 16
20 21 17 14 7 10 15 16 13 11 9 9 14 13 13 13 8 7 8 8 8 6 7 8 9 8 8 7 6 8 9 9 9 9 8 8 8 10 12 14 14 15 15 14 15 14 12 12 12 11 12 12 11 11 9 7 6 7 9 9 8 7 6 5 4 4 3 3 3 3 3 2 3 4 4 6 7 7 10 12 13 13 16 19 20 20 21
17 13 11 11 10 11 13 15 18 17 9 13 12 12 12 13 11 8 10 8 9 8 6 6 8 8 7 6 6 7 8 9 9 10 10 9 11 11 12 13 13 13 12 12 12 12 12 12 12 12 12 11 10 10 10 9 8 9 10 10 9 8 7 6 5 5 5 4 4 3 3 3 2 2 2 4 6 8 8 8 11 15 17 19 21 22 23
18 18 17 14 12 12 12 14 18 17 6 14 14 13 14 13 11 9 11 10 9 9 9 7 7 9 8 5 4 6 9 10 8 7 7 9 11 13 13 13 12 11 11 11 11 11 12 12 11 11 11 10 10 9 9 9 9 10 10 10 10 9 7 6 6 5 4 4 3 2 2 1 1 1 2 2 3 4 5 7 8 9 13 19 22 24 24
18 18 16 15 14 15 14 13 11 13 7 14 15 15 13 12 11 9 8 11 12 11 10 10 8 7 6 5 3 6 8 8 9 9 8 10 11 10 11 12 13 14 13 12 11 11 11 10 11 11 10 10 9 9 9 9 9 10 10 9 8 10 12 8 6 5 5 4 3 3 3 3 3 3 3 3 3 4 5 7 9 11 12 14 14 20 22
17 15 13 14 13 13 11 14 12 6 4 13 17 13 10 9 8 8 10 12 12 11 10 11 10 9 6 6 4 6 10 12 12 10 9 9 8 8 9 10 10 10 11 13 13 11 10 10 10 10 10 9 9 9 9 9 9 9 9 9 8 7 7 8 6 5 5 4 4 4 4 3 3 3 3 4 4 4 5 6 8 11 12 13 15 20 25
15 14 12 16 16 9 5 9 9 8 11 10 16 13 8 9 12 13 12 9 9 11 9 9 8 7 6 7 7 7 10 11 11 11 10 8 8 8 8 9 10 11 11 11 11 11 12 12 12 12 10 9 8 9 9 9 8 8 7 7 7 7 6 6 5 4 4 3 4 4 3 3 3 4 4 4 5 5 7 9 10 9 11 13 14 15 16
12 6 6 8 10 10 13 12 12 12 11 11 12 13 10 7 9 11 13 10 6 8 7 6 5 6 7 6 8 10 12 11 9 8 9 9 10 10 10 8 9 11 12 13 12 11 11 11 12 13 11 9 8 8 8 8 7 7 7 7 6 6 5 5 5 4 4 3 4 3 3 3 3 3 5 6 7 7 8 10 11 7 9 13 13 12 8
7 7 6 9 11 7 8 9 8 8 9 10 12 14 14 12 10 10 10 8 8 7 6 8 7 6 6 7 7 7 8 9 9 10 10 11 12 12 13 13 13 12 12 12 11 11 10 10 10 9 9 10 8 8 7 7 6 6 6 5 5 5 5 4 4 4 4 4 4 3 3 2 2 3 4 5 6 7 8 8 9 10 8 7 7 9 13
12 12 10 10 8 8 6 6 8 8 7 8 10 10 11 13 14 12 8 8 7 6 6 8 8 6 4 5 7 8 10 10 10 10 10 12 13 13 14 15 15 14 12 12 12 12 10 9 9 8 7 9 9 9 8 7 6 6 6 5 5 4 4 3 2 3 3 3 3 3 3 3 3 4 4 4 4 5 5 7 8 10 9 10 13 16 16
15 14 12 10 9 8 7 7 10 9 8 9 7 6 6 7 8 9 9 8 8 6 7 6 6 6 5 6 8 9 9 9 10 11 11 12 13 13 13 13 13 13 13 11 11 10 12 11 10 8 9 9 10 11 10 8 7 6 6 5 5 4 3 3 2 3 3 2 2 2 3 3 4 4 4 5 5 5 5 6 6 7 9 10 9 10 11
12 11 13 12 10 12 12 9 7 9 8 7 6 7 9 9 9 10 10 10 10 9 8 7 7 7 7 8 8 9 9 11 11 12 13 12 12 12 11 11 12 13 13 12 12 12 11 11 10 8 9 9 9 10 10 9 7 6 6 6 5 4 4 4 3 4 3 4 3 3 2 3 3 3 3 4 4 5 5 5 5 6 6 7 8 7 10
13 13 11 11 9 10 9 9 10 8 6 9 9 8 9 10 11 11 12 11 11 11 9 9 8 9 10 10 10 10 11 12 12 13 12 12 12 11 9 10 10 10 12 14 13 12 12 12 11 10 10 10 11 10 10 9 7 6 7 6 6 6 6 5 5 5 4 4 4 5 4 3 3 3 3 3 4 4 4 4 5 5 6 6 6 7 9
15 12 10 9 9 11 10 9 9 11 10 10 10 11 10 10 11 12 13 12 10 10 10 10 10 11 12 12 11 11 12 12 12 12 12 13 13 12 12 13 11 11 12 14 14 12 11 11 17 16 10 11 10 11 11 9 8 8 7 7 6 6 6 6 6 6 5 5 5 4 4 4 4 3 3 2 2 3 3 3 3 5 5 5 5 6 6
12 12 11 11 11 11 11 10 8 9 10 10 11 10 10 10 10 10 9 10 10 9 9 9 10 12 13 13 13 13 12 12 12 12 12 12 13 14 14 13 13 14 13 14 13 11 11 12 17 18 13 11 11 12 13 15 8 8 7 7 7 7 7 7 7 7 7 7 6 6 6 5 4 4 4 3 2 1 2 2 3 3 3 4 5 6 6
15 14 13 11 11 11 11 10 8 9 10 11 10 10 12 10 9 11 12 12 11 10 10 10 10 11 12 13 14 14 14 13 14 14 13 14 13 16 17 16 14 13 13 12 11 11 11 13 17 14 12 11 10 11 13 16 13 10 9 9 8 8 9 8 8 9 8 8 7 7 6 7 6 6 6 5 3 2 2 2 3 3 3 2 3 4 5
16 14 12 11 10 11 12 11 11 10 10 12 12 11 11 12 13 14 13 12 11 9 11 11 10 12 12 12 12 12 12 12 12 12 11 11 11 15 15 14 13 12 11 11 12 12 14 14 11 11 10 11 11 11 12 14 13 9 9 9 9 9 9 9 8 8 8 8 8 8 8 7 6 6 6 6 6 5 4 3 2 2 2 3 2 2 3
15 15 15 15 15 14 14 13 13 14 13 12 12 12 12 13 14 14 13 13 10 9 10 11 12 12 12 13 12 12 12 12 11 12 12 11 12 12 11 14 16 14 15 16 13 12 17 20 14 10 10 10 11 9 9 12 10 9 10 10 10 9 9 9 9 9 9 9 9 9 8 8 7 6 5 4 4 5 4 4 3 3 2 1 2 3 2
16 16 15 16 16 15 15 16 16 16 16 15 13 12 12 13 14 14 13 12 10 11 10 9 11 12 12 12 12 11 11 11 12 14 14 14 15 13 14 16 15 14 14 13 12 13 15 15 13 11 10 10 10 11 8 12 9 9 9 9 9 10 9 10 9 9 9 9 9 9 9 8 7 6 6 4 4 5 4 3 2 2 3 2 4 4 3
13 15 15 14 13 13 14 15 14 15 13 12 13 15 15 15 14 13 11 11 10 10 12 13 15 12 9 9 10 11 11 11 12 15 19 18 16 13 14 14 13 13 18 16 15 15 13 13 13 13 11 10 10 16 14 10 9 9 9 9 9 9 9 9 9 9 9 9 9 9 9 8 8 8 7 6 6 4 4 4 4 4 3 1 3 5 5
16 16 14 13 12 14 15 14 14 15 14 13 12 12 12 13 13 13 12 11 11 10 11 10 12 12 11 10 11 11 10 9 11 12 15 18 18 16 14 11 11 13 19 13 13 12 13 12 12 12 16 13 12 16 15 11 10 10 10 10 10 10 10 9 9 9 9 9 10 10 11 10 9 8 8 7 6 4 3 2 2 2 2 2 2 2 2
16 14 13 14 13 12 12 13 13 14 14 12 11 11 12 12 11 11 12 11 12 12 11 11 12 12 12 11 11 10 9 9 9 10 11 12 14 15 13 11 10 14 19 12 12 12 12 12 12 14 19 20 19 17 11 11 11 11 11 11 11 10 10 10 10 10 10 9 9 9 8 9 10 10 9 8 7 7 5 4 4 4 3 3 2 2 3
15 15 15 13 13 12 12 12 13 13 12 12 13 13 12 11 11 11 12 13 13 13 12 12 11 11 11 11 10 10 9 9 9 9 11 12 12 12 11 11 12 11 14 15 11 12 12 12 15 20 17 18 18 18 12 11 12 11 11 11 12 11 11 11 11 10 10 10 9 8 8 8 8 9 10 10 10 9 8 7 7 5 4 3 4 3 4
15 14 14 15 15 13 11 11 10 11 13 13 14 14 12 11 12 12 12 13 13 12 12 12 12 11 10 9 9 9 10 10 10 10 9 9 10 9 10 12 11 12 17 17 11 11 11 19 21 20 20 19 17 13 12 11 11 11 12 12 12 12 12 11 11 11 11 10 10 10 10 9 9 10 10 9 9 9 9 10 9 8 6 5 5 5 5
11 11 12 11 10 10 9 9 11 13 13 13 12 10 10 11 11 11 11 11 11 11 10 10 11 11 10 10 8 7 8 9 9 9 8 8 8 10 11 14 14 16 14 12 12 12 12 13 16 20 19 19 17 11 11 11 11 11 12 12 12 12 12 12 12 12 11 11 11 11 12 12 11 11 11 11 11 10 10 10 10 9 8 7 6 6 5
10 10 9 8 9 8 9 11 12 11 11 11 9 8 9 10 11 10 10 10 11 12 12 12 11 12 12 11 11 10 8 6 9 8 8 7 7 8 9 9 11 15 14 13 15 16 22 20 20 19 19 17 12 12 12 12 11 11 11 12 12 12 12 12 12 12 12 12 13 12 12 12 11 11 11 11 10 10 10 10 10 9 10 10 9 9 9
9 9 9 8 9 9 9 10 11 10 8 8 9 8 8 9 10 10 10 10 11 10 11 11 12 11 10 10 10 9 9 9 7 6 6 7 8 8 8 11 15 15 10 9 10 10 17 20 19 18 18 15 11 11 11 11 12 12 11 11 11 11 11 12 11 10 11 12 12 12 12 11 11 10 10 10 10 10 11 11 11 11 11 9 10 11 11
10 10 10 9 8 8 8 8 8 7 6 7 7 6 6 8 9 8 7 8 8 8 8 9 8 8 7 7 7 8 8 8 8 8 8 8 9 9 9 9 10 14 13 9 9 9 12 16 16 17 13 11 11 11 10 11 11 11 11 12 11 11 12 12 12 14 12 12 12 12 12 11 11 12 12 11 11 11 11 11 10 13 19 13 11 11 11
9 9 8 8 8 8 10 9 7 7 7 7 7 7 8 8 8 7 7 6 5 7 7 8 8 8 7 7 7 8 8 8 9 10 8 8 8 10 11 9 10 10 10 9 9 9 8 9 10 11 11 11 11 11 11 11 10 11 11 11 12 11 11 12 11 12 12 11 11 11 11 11 11 11 11 11 11 11 11 11 12 11 11 11 11 10 10
10 8 7 7 8 8 8 8 8 8 7 7 7 7 7 7 7 7 8 9 7 6 6 7 8 8 7 7 8 8 8 9 8 8 9 9 9 8 9 11 9 9 9 8 8 9 8 8 10 12 12 10 9 10 11 13 11 11 11 11 10 11 12 11 11 11 11 11 11 10 11 11 11 11 11 10 10 10 10 10 10 10 10 10 9 9 9
Wind_Direction
329 295 293 303 279 257 261 267 270 271 281 270 236 228 199 170 213 238 167 170 221 239 233 238 246 228 239 246 245 253 306 331 239 219 238 247 250 258 235 222 214 211 209 208 209 203 200 195 192 195 194 197 197 196 196 189 192 195 188 182 184 188 190 195 196 189 190 193 194 195 194 193 195 199 200 201 202 202 201 203 206 209 209 208 206 206 207
311 308 299 298 277 278 275 264 268 268 268 265 266 261 243 218 231 240 237 177 220 224 230 228 231 218 242 266 327 309 244 239 227 223 231 247 255 244 240 235 219 216 219 214 212 207 201 198 198 196 195 197 196 195 193 189 192 194 173 176 183 193 196 198 192 188 189 189 190 191 191 193 195 196 199 201 200 201 201 202 205 205 209 209 209 206 204
304 309 301 289 299 306 286 281 264 263 261 262 253 251 253 254 246 242 244 195 234 216 226 238 218 187 275 276 260 250 245 267 245 221 249 255 259 260 258 259 249 235 229 223 214 206 202 200 201 200 199 199 195 198 190 191 192 189 183 189 189 195 201 195 186 187 187 193 191 195 197 198 198 198 200 200 201 204 205 205 207 206 206 210 211 210 208
293 293 319 317 319 307 281 270 264 248 243 249 242 236 234 236 235 239 252 247 241 187 233 254 258 228 229 237 241 245 250 248 245 247 250 245 248 257 270 285 274 250 236 225 216 212 208 205 201 199 201 197 191 198 192 192 191 185 187 187 191 198 201 187 183 187 192 191 192 197 195 198 197 197 200 202 204 203 203 205 206 206 208 210 212 212 212
275 294 318 329 317 307 277 249 246 247 248 248 251 254 240 237 233 232 231 246 272 250 214 246 239 235 236 238 242 247 242 230 234 238 243 247 248 243 254 257 254 252 245 234 223 220 214 204 200 203 196 193 196 197 191 194 181 184 187 188 191 196 191 182 188 190 188 189 193 195 197 197 195 195 198 202 204 204 206 206 205 207 210 211 214 213 214
280 310 313 315 294 253 243 58 278 271 266 270 250 245 235 234 228 250 260 256 248 236 214 229 238 232 233 233 239 229 235 232 229 237 235 242 250 256 255 257 257 255 248 247 239 225 220 214 208 200 191 194 200 197 197 180 182 194 193 197 196 196 187 187 188 187 187 190 195 197 194 192 193 195 198 204 205 205 206 206 212 213 214 212 213 218 218
276 290 296 278 250 238 5 306 73 289 262 257 260 265 248 237 232 241 250 248 250 245 224 223 231 238 246 2 269 205 214 232 240 241 243 234 241 251 253 257 262 260 258 254 249 243 232 223 207 181 193 200 188 179 170 179 188 191 195 197 199 197 192 191 186 187 190 193 196 193 190 190 193 198 200 203 203 204 206 209 213 216 217 215 219 222 220
265 293 231 239 214 353 307 329 86 10 190 347 281 252 241 249 245 229 233 228 238 241 230 227 237 269 59 89 46 230 220 227 238 240 244 247 259 265 277 282 279 272 270 264 256 246 232 206 203 194 195 190 186 179 170 178 181 189 191 195 197 189 189 189 192 192 191 194 195 193 192 192 196 200 202 202 202 200 204 211 218 220 216 215 218 222 220
238 228 239 249 325 321 297 308 50 5 19 351 6 306 19 353 357 330 288 256 242 242 224 225 230 193 210 243 216 205 224 219 240 251 269 294 295 307 303 301 295 289 277 264 259 249 218 200 196 194 188 181 178 166 176 184 182 186 186 192 194 190 192 189 188 187 191 194 193 193 192 195 200 201 201 202 201 197 203 207 208 210 215 218 220 220 218
208 239 259 268 255 251 246 131 128 254 267 263 221 186 268 88 28 8 339 302 286 276 261 221 194 156 220 246 245 190 198 201 212 231 266 294 295 316 320 319 309 306 296 272 245 230 198 191 190 172 171 174 167 166 176 174 179 189 193 201 197 190 191 183 183 190 191 189 189 192 195 200 202 202 203 203 202 196 202 205 209 213 216 217 221 223 216
203 215 231 234 241 233 95 145 339 320 295 225 175 195 249 118 355 351 339 313 306 303 307 271 165 187 221 234 240 154 167 166 173 172 144 355 1 7 355 339 338 345 349 344 147 148 167 177 176 167 166 167 172 178 179 180 184 190 198 201 193 191 186 183 192 194 188 191 194 195 201 204 202 202 202 203 201 197 206 211 214 210 210 213 215 213 216
234 229 223 237 230 227 173 148 336 323 352 173 205 276 274 37 343 330 327 315 308 309 304 289 223 210 230 232 229 139 144 136 117 146 108 56 34 30 14 19 13 13 9 51 56 55 51 20 353 180 169 173 181 177 178 179 188 199 203 194 182 181 189 196 196 192 194 193 194 199 204 203 200 204 201 201 203 203 206 210 212 213 215 217 215 212 209
227 231 244 261 256 222 258 268 121 352 143 189 232 239 38 314 330 326 330 317 311 305 292 268 239 229 318 359 85 120 121 127 129 130 97 52 25 24 20 22 33 57 54 58 62 54 43 21 100 163 173 174 178 175 168 181 197 202 192 179 180 189 190 194 196 195 196 198 201 205 206 203 202 204 205 207 206 206 208 210 216 218 218 222 223 226 224
220 223 239 244 270 257 150 166 168 33 166 222 240 48 242 301 322 339 328 320 312 309 291 274 256 329 359 86 88 110 120 123 131 130 131 126 95 59 47 42 57 74 71 65 63 56 47 35 65 136 156 169 164 152 168 190 200 195 172 179 189 192 190 194 198 199 202 202 203 205 203 198 199 203 207 208 209 211 212 213 216 221 222 224 225 222 224
227 236 245 246 249 190 193 127 185 177 236 301 19 299 308 339 329 328 331 317 324 323 302 282 250 161 153 109 113 112 121 133 130 135 130 127 94 65 59 57 62 80 77 65 56 50 42 38 30 61 134 118 122 135 144 95 63 158 187 193 187 195 196 201 202 204 204 203 203 203 203 200 199 204 203 205 208 209 210 214 219 224 225 226 229 231 231
219 212 219 220 295 15 161 189 230 165 234 63 210 273 279 27 358 342 325 322 325 326 311 286 206 161 137 92 106 118 121 125 129 125 135 126 114 88 70 66 72 75 76 69 62 52 50 45 45 38 62 93 99 100 73 28 4 354 193 192 192 196 199 204 207 208 209 207 207 208 206 201 205 210 208 208 210 211 215 212 220 223 225 225 225 226 225
261 269 275 321 329 309 307 277 276 140 148 165 174 217 161 35 30 348 321 319 333 332 328 291 181 149 121 123 128 125 127 128 128 126 116 103 89 82 77 78 80 79 79 75 66 55 48 49 49 51 58 77 80 72 49 41 40 35 10 228 197 201 204 208 209 212 211 210 209 209 209 203 210 214 216 211 216 224 222 223 227 228 229 228 224 224 222
298 278 260 274 282 293 292 290 218 151 153 163 171 186 137 57 24 357 327 327 341 343 327 276 118 117 125 122 117 118 121 115 112 110 98 88 79 75 80 80 83 89 87 83 78 72 59 50 50 50 52 57 62 52 46 46 46 42 55 53 214 226 220 216 213 211 217 219 219 216 214 213 216 216 217 216 221 221 224 226 227 228 228 224 225 226 228
324 285 53 222 236 248 275 269 254 171 157 161 157 133 93 70 34 8 350 356 13 4 351 24 114 122 130 118 105 99 91 80 85 90 87 79 76 73 69 73 88 91 90 86 81 79 72 62 61 59 57 55 51 45 39 36 36 39 53 56 68 77 261 257 249 237 233 229 224 221 218 222 222 222 221 225 228 227 226 229 226 227 230 224 228 233 232
237 250 280 294 315 310 272 260 248 203 178 154 139 111 88 70 40 8 23 24 45 29 20 14 74 82 104 116 114 106 94 88 87 83 85 86 80 75 73 78 81 80 80 78 77 74 72 70 71 69 67 63 59 58 56 49 46 48 50 48 55 51 45 40 274 256 249 266 266 251 237 227 229 227 230 230 231 233 231 227 229 228 228 230 227 230 232
288 287 280 278 285 277 269 256 254 238 184 152 114 93 77 67 44 17 34 30 32 43 26 10 49 65 52 83 102 107 103 91 85 81 82 81 79 80 78 73 75 80 84 84 80 76 73 71 69 67 64 62 59 57 54 51 52 59 60 60 61 61 57 53 45 32 15 333 274 258 254 253 249 249 244 243 241 242 234 232 228 230 234 234 230 231 228
265 244 259 87 225 251 232 235 228 221 216 159 101 82 73 66 43 18 42 49 37 28 16 9 28 43 35 27 39 75 78 77 78 87 87 84 84 85 85 87 89 88 87 87 86 82 79 76 74 71 69 67 62 56 55 56 60 66 69 68 67 63 58 57 58 68 69 68 54 40 13 349 340 327 341 334 317 294 277 273 266 253 246 242 240 236 236
264 257 257 260 273 293 296 263 227 226 230 131 79 73 76 75 59 34 35 46 47 35 19 9 25 32 14 3 40 56 63 56 48 49 61 75 80 81 86 87 83 83 82 81 78 73 68 67 65 65 63 61 58 54 54 59 65 72 79 82 76 67 62 55 37 42 64 73 89 89 131 301 268 298 296 294 293 286 269 270 272 282 287 291 295 289 267
261 268 272 275 283 270 282 283 266 249 241 108 100 94 86 80 65 46 48 41 55 38 21 15 18 22 25 3 39 60 57 51 50 46 41 46 54 65 68 66 64 63 62 60 61 61 60 59 59 58 57 52 48 48 45 43 55 69 73 76 75 73 69 75 66 54 53 41 28 22 24 9 0 343 324 315 304 285 288 286 285 271 263 258 255 252 261
258 264 268 267 266 271 273 283 275 261 245 110 97 90 91 87 72 59 63 44 43 53 33 22 19 18 37 31 28 45 51 54 57 62 59 57 52 52 52 54 55 56 55 56 57 58 58 57 55 53 52 46 42 42 41 44 47 56 60 63 65 62 61 58 58 56 51 43 27 17 13 7 23 349 321 312 307 320 312 290 278 281 277 266 256 253 244
256 261 262 265 267 261 265 277 266 244 213 109 106 97 89 86 89 73 67 59 47 44 39 17 20 26 14 17 24 54 65 54 29 37 52 50 59 61 56 57 60 63 64 62 61 62 64 62 60 56 52 45 39 39 42 44 47 52 55 57 57 55 57 60 63 61 52 42 23 13 33 34 3 343 0 338 327 315 313 322 306 269 250 249 253 251 246
253 252 254 266 264 258 255 233 222 213 171 109 103 105 100 100 95 88 75 67 52 35 31 26 16 23 19 344 1 51 67 63 54 44 45 53 52 54 64 68 67 69 69 68 65 65 66 66 64 58 52 44 40 40 43 45 48 50 51 53 56 55 55 58 61 57 50 43 39 27 28 22 8 7 358 353 344 346 347 329 322 313 315 296 265 243 245
247 240 213 224 241 248 236 231 224 186 141 118 108 104 117 130 118 103 87 77 70 53 30 17 12 13 37 347 322 55 59 57 57 49 44 46 55 59 55 57 60 59 63 64 64 62 62 62 59 56 46 38 39 42 46 52 52 50 48 46 46 43 39 45 48 47 45 40 33 30 22 14 359 348 347 343 338 327 322 325 332 329 318 302 294 288 257
250 246 223 214 223 222 181 176 158 127 104 92 107 115 135 137 118 99 81 74 84 82 58 32 12 3 3 346 331 36 57 55 56 59 59 51 45 47 49 53 57 57 55 50 46 47 52 52 50 48 40 33 33 36 42 49 55 55 52 49 43 37 35 32 30 30 34 32 32 19 8 2 358 359 356 339 330 336 352 0 353 355 335 323 319 304 294
244 203 154 135 125 147 162 159 136 126 115 116 120 124 122 104 95 98 100 94 84 86 95 82 42 10 348 2 14 38 58 63 64 63 59 52 48 44 43 47 58 51 45 39 32 29 35 36 38 41 36 32 37 37 40 48 54 58 61 60 58 43 36 24 19 14 1 11 14 358 28 29 33 16 5 350 349 354 358 360 353 354 3 354 347 344 336
141 133 133 122 121 142 165 141 123 113 111 121 126 125 119 111 98 92 98 104 89 70 59 65 59 52 41 38 37 50 66 67 64 60 56 55 54 52 50 48 53 48 44 39 32 25 25 29 31 28 21 27 34 41 47 48 50 54 53 51 55 81 57 22 31 8 356 352 0 7 19 8 29 19 20 8 1 13 19 11 358 352 16 16 342 359 2
124 123 126 113 116 125 158 136 121 116 118 120 120 121 130 130 122 117 109 95 93 97 88 82 86 81 66 62 64 66 63 57 56 56 54 55 55 53 54 55 57 55 50 44 41 36 29 26 27 19 15 31 31 36 40 43 47 50 49 44 36 39 49 335 28 31 1 6 354 350 357 345 7 14 13 21 10 26 37 38 19 352 352 24 23 24 12
127 128 122 121 128 131 133 128 126 119 119 115 110 109 94 95 102 107 107 109 106 101 97 92 91 87 79 71 68 66 67 67 67 62 57 52 53 55 57 58 57 56 52 46 42 36 32 29 26 23 27 34 39 39 37 39 40 39 39 39 38 38 30 45 5 349 22 354 27 7 8 357 351 356 8 359 2 15 39 45 51 36 7 4 21 27 34
140 141 137 143 146 145 141 130 112 112 106 95 101 107 113 110 107 107 109 113 110 103 95 98 97 92 87 79 74 74 75 71 62 58 56 54 55 60 60 59 58 56 52 46 42 39 33 27 26 32 34 37 42 42 37 35 35 35 33 30 32 25 23 25 32 21 13 5 360 20 15 15 5 2 2 352 2 21 31 27 39 63 61 34 16 11 43
97 98 97 104 102 107 106 120 122 111 114 117 110 104 109 113 114 112 110 106 105 104 103 99 96 93 86 82 73 69 65 66 65 64 62 60 58 53 50 50 50 48 48 47 40 39 32 28 25 31 36 37 37 39 36 33 32 34 28 20 18 17 17 18 20 23 17 9 357 2 2 8 20 28 14 1 11 22 29 32 27 31 53 55 41 37 38
99 98 98 101 105 108 109 110 111 116 121 118 116 117 112 111 109 107 106 103 101 96 90 86 84 82 79 75 73 70 70 69 69 65 61 55 55 55 51 49 44 44 44 45 35 28 24 23 24 31 35 36 34 33 28 24 32 31 31 23 21 14 15 15 19 19 18 11 12 9 3 10 16 32 31 27 19 18 30 45 45 37 39 39 43 47 54
79 90 92 89 90 87 96 95 92 107 112 111 109 101 98 92 89 88 83 82 77 73 74 78 79 78 78 78 78 76 72 71 68 65 60 56 56 57 54 51 44 44 44 42 25 15 20 19 22 31 35 36 33 30 25 23 32 35 32 30 26 21 16 13 16 16 17 16 10 3 358 340 351 5 6 10 7 21 62 82 76 71 40 32 38 47 58
52 58 66 75 79 77 80 82 80 82 81 81 81 83 85 83 80 77 77 75 71 70 71 70 72 75 76 73 70 66 65 64 66 64 60 55 53 56 51 47 41 36 37 32 19 18 17 12 21 34 35 35 32 31 28 30 38 41 43 40 38 34 30 26 23 22 20 19 15 8 0 1 353 351 345 335 345 14 8 62 98 116 120 104 65 56 59
44 45 46 52 62 66 67 70 74 76 80 91 92 85 84 84 83 79 73 70 70 72 74 71 65 65 66 65 61 55 51 50 53 52 50 47 48 54 52 42 37 31 30 27 27 25 19 17 22 27 28 22 24 28 27 30 37 41 38 38 38 36 31 28 24 20 18 13 16 14 16 17 15 12 353 351 340 349 12 23 26 99 132 142 138 115 103
49 51 49 52 52 53 58 60 57 59 59 57 65 70 70 72 72 71 68 65 57 63 70 72 71 70 65 64 59 54 45 41 40 43 47 49 50 51 49 40 30 28 27 29 30 27 23 22 22 25 22 20 19 21 26 21 26 37 40 39 36 37 34 28 26 23 19 16 16 17 19 17 17 15 12 348 333 333 6 38 31 28 27 102 128 119 100
49 49 45 49 49 46 50 53 53 52 52 50 49 54 59 66 69 68 65 66 63 60 57 59 69 67 64 66 67 62 55 49 48 51 53 57 55 50 48 42 28 27 26 28 28 27 27 26 23 21 22 22 24 18 21 24 29 38 40 39 39 37 37 32 26 24 19 15 15 15 14 7 8 9 12 8 11 11 25 20 28 118 144 163 152 142 109
53 62 57 53 58 62 59 59 56 53 53 51 53 57 58 61 64 69 67 65 62 60 63 62 66 68 65 61 63 62 57 54 56 58 56 54 51 49 48 43 29 28 25 30 31 32 30 29 27 27 24 24 28 25 31 32 32 32 33 32 32 32 29 24 21 20 21 25 25 20 13 6 7 13 14 7 27 36 43 40 15 350 347 143 149 146 154
43 50 58 68 64 63 67 66 62 60 53 46 48 55 61 64 66 66 62 60 59 59 59 52 52 50 46 47 50 51 44 40 47 56 61 59 54 52 52 45 35 29 30 38 37 39 36 33 33 34 33 35 33 33 38 38 36 34 34 32 31 31 28 24 19 14 14 19 22 23 21 17 14 12 13 19 15 23 45 102 127 122 74 12 34 90 139
48 47 48 53 49 53 60 63 66 66 62 49 40 45 52 56 56 60 60 56 56 54 52 49 47 47 48 50 52 47 36 31 36 45 58 61 57 50 42 43 39 36 36 42 43 42 38 34 32 31 35 37 38 38 41 40 38 38 37 36 35 35 35 31 28 27 28 24 22 21 17 19 24 25 21 16 7 15 23 34 74 83 83 90 60 90 117
41 47 43 49 57 55 53 55 62 70 73 66 54 46 48 55 53 49 55 58 57 51 45 44 47 50 53 52 53 53 49 42 37 38 54 57 57 47 34 40 42 40 39 41 48 45 40 33 28 30 31 33 37 40 42 39 39 39 39 39 38 37 38 36 33 32 28 26 24 15 13 14 18 23 28 26 20 22 25 26 34 53 84 116 136 139 140
39 36 38 47 49 47 53 63 62 65 66 63 59 49 43 47 51 49 49 53 54 51 50 49 45 38 35 47 56 59 58 50 42 37 43 51 57 52 42 45 45 44 44 44 42 41 38 32 30 27 29 31 35 42 42 40 40 41 39 39 37 36 36 35 35 33 30 29 25 24 21 18 22 24 22 26 22 19 26 33 42 40 48 63 56 20 359
37 37 31 33 41 40 48 58 63 61 60 61 55 47 40 45 50 52 52 53 55 53 49 49 49 45 41 37 29 31 54 59 47 31 32 39 50 53 47 45 46 47 49 47 45 39 34 31 29 28 29 31 35 39 39 40 40 41 40 39 38 37 35 36 35 35 34 29 26 28 28 28 28 27 27 28 25 21 17 22 28 27 23 31 40 35 29
43 44 39 38 47 48 52 55 58 58 59 65 67 63 58 55 55 55 53 55 58 56 52 48 46 43 40 40 42 39 27 43 68 42 18 31 38 46 44 41 38 39 44 49 47 41 34 31 30 31 33 35 37 37 37 37 38 38 39 39 38 36 35 34 35 36 34 34 33 34 33 31 28 27 26 25 24 22 20 21 19 15 19 21 21 19 20
40 46 42 34 31 27 38 52 60 59 56 59 65 61 57 62 60 52 49 49 54 56 53 48 45 42 41 39 41 42 42 36 49 56 26 32 33 37 40 40 36 35 39 43 44 44 34 31 28 29 33 38 39 40 40 40 39 40 39 38 40 38 36 37 33 33 38 40 40 40 38 35 33 32 30 28 25 23 21 22 20 21 16 16 21 22 22
39 41 40 36 34 29 32 48 52 52 56 58 57 50 53 60 60 48 44 50 56 62 61 54 49 41 39 39 39 43 40 46 48 48 45 42 43 43 40 41 40 38 36 37 35 36 36 35 33 31 33 38 38 38 39 41 42 42 43 41 42 44 39 37 39 37 39 39 39 39 38 37 34 31 31 31 29 28 26 22 22 19 19 24 28 27 26
40 44 42 43 47 49 47 49 48 48 51 52 56 60 62 65 65 55 45 38 51 61 66 63 52 44 41 41 42 41 41 45 47 44 44 42 43 46 43 44 43 37 36 36 34 33 34 34 35 33 36 39 41 40 37 37 40 41 41 44 43 41 39 35 35 36 36 37 39 36 35 37 37 35 34 32 29 29 30 31 28 25 26 27 27 28 28
48 46 51 54 53 49 48 45 41 42 43 47 52 59 64 67 71 64 53 39 45 52 54 65 60 43 39 43 43 44 42 43 44 44 42 39 39 40 41 40 40 37 33 35 36 35 34 31 35 37 37 40 41 42 41 40 41 40 39 38 41 44 41 37 35 35 34 32 33 35 36 36 36 39 39 39 37 35 32 32 32 31 28 29 28 27 30